PDT,Max TemperatureF,Mean TemperatureF,Min TemperatureF,Max Dew PointF,MeanDew PointF,Min DewpointF,Max Humidity, Mean Humidity, Min Humidity, Max Sea Level PressureIn, Mean Sea Level PressureIn, Min Sea Level PressureIn, Max VisibilityMiles, Mean VisibilityMiles, Min VisibilityMiles, Max Wind SpeedMPH, Mean Wind SpeedMPH, Max Gust SpeedMPH,PrecipitationIn, CloudCover, Events, WindDirDegrees
2014-5-1,90,70,49,51,44,25,89,50,10,30.06,30.03,30.00,10,10,10,13,5,16,0.00,1,,241
2014-5-2,80,63,45,54,49,44,100,70,39,30.06,30.02,29.96,10,10,10,18,5,21,0.00,3,,162
2014-5-3,73,62,50,50,48,45,100,70,40,30.01,29.97,29.91,10,9,2,20,6,24,0.00,4,,214
2014-5-4,70,58,46,50,47,44,86,67,48,30.01,29.99,29.96,10,10,10,18,7,25,0.00,3,,256
2014-5-5,68,57,45,48,44,40,100,71,42,30.01,29.96,29.88,10,10,10,23,6,30,0.02,2,Rain,295
2014-5-6,76,62,47,44,42,39,82,55,27,29.93,29.87,29.81,10,10,10,23,9,30,0.00,0,,330
2014-5-7,73,58,42,48,44,41,96,66,35,29.95,29.89,29.85,10,10,8,14,5,19,0.00,2,,190
2014-5-8,64,56,48,57,52,43,100,79,57,30.05,30.01,29.94,10,8,2,14,6,18,T,7,Rain,181
2014-5-9,74,61,48,54,48,40,100,67,33,30.13,30.09,30.04,10,9,0,20,8,25,0.00,3,Fog,264
2014-5-10,71,60,48,43,41,38,77,54,31,30.11,30.06,29.98,10,10,10,25,13,32,T,1,Rain,328
2014-5-11,81,64,46,44,39,31,80,49,17,30.11,30.05,29.97,10,10,10,18,7,22,0.00,1,,312
2014-5-12,87,66,45,47,41,30,89,52,14,30.08,30.04,30.01,10,10,10,14,4,19,0.00,1,,227
2014-5-13,94,71,47,48,43,37,80,49,18,30.10,30.06,30.04,10,10,10,13,4,16,0.00,0,,234
2014-5-14,94,72,49,49,42,28,83,47,10,30.10,30.06,30.01,10,10,10,13,3,16,0.00,1,,198
2014-5-15,91,69,47,52,42,27,86,48,10,30.08,30.04,30.01,10,10,10,15,5,18,0.00,2,,232
2014-5-16,85,65,45,52,47,42,93,60,26,30.04,29.99,29.91,10,10,7,16,5,19,0.00,2,,161
2014-5-17,82,64,46,54,48,40,100,70,39,29.95,29.92,29.86,10,9,5,15,5,20,0.00,1,Fog,162
2014-5-18,79,64,49,50,45,40,77,52,26,29.94,29.91,29.87,10,10,10,18,9,25,0.00,1,,303
2014-5-19,71,62,52,48,46,44,77,59,40,29.92,29.89,29.85,10,10,10,22,10,27,0.00,2,,270
2014-5-20,75,61,47,51,47,42,89,61,33,29.95,29.92,29.90,10,10,10,16,6,22,T,3,Rain,196
2014-5-21,78,62,46,54,49,46,100,70,40,29.94,29.91,29.86,10,7,1,20,6,24,0.00,2,,165
2014-5-22,77,64,50,55,51,48,96,71,46,30.01,29.93,29.88,10,9,3,16,6,20,0.00,5,,156
2014-5-23,80,65,50,56,52,49,100,75,49,30.01,29.96,29.88,10,9,4,14,4,17,0.00,5,,179
2014-5-24,84,68,52,58,51,48,83,62,40,29.95,29.91,29.85,10,10,10,15,6,18,0.00,1,,168
2014-5-25,96,73,49,50,44,39,86,51,15,29.93,29.89,29.84,10,10,9,23,8,29,0.00,1,Rain,306
2014-5-26,93,72,51,49,42,32,77,45,12,29.97,29.93,29.89,10,10,10,20,8,29,0.00,0,Rain,307
2014-5-27,89,68,46,47,40,26,93,52,11,30.00,29.96,29.91,10,10,5,23,8,29,0.00,1,,266
2014-5-28,84,69,53,42,35,26,48,30,12,30.04,29.98,29.91,10,10,4,22,10,29,0.00,0,,333
2014-5-29,83,66,49,48,42,30,77,47,17,29.93,29.88,29.83,10,10,9,15,8,20,0.00,0,,116
2014-5-30,71,57,43,49,46,42,100,72,44,29.92,29.89,29.86,10,5,0,15,6,21,0.00,2,Fog,169
2014-5-31,78,63,48,51,48,47,93,63,33,29.96,29.91,29.86,10,7,3,16,6,19,0.00,4,,156